Location: ?????????
(54.7630°N, 39.4991°E)
Time: 11:10:45
(UTC+00:00)

Envisat - Pass Details

Date: 14 April 2026
Orbit: 761 x 762 km, 98.4° (Epoch: 10 May)

Event Time Altitude Azimuth Distance (km) Brightness Sun altitude
Rises 23:37:07 0° 19° (NNE) 3,239 7.6 -19.6°
Reaches altitude 10° 23:39:33 10° 26° (NNE) 2,308 6.7 -19.4°
Maximum altitude 23:44:24 43° 98° (E) 1,064 3.9 -19.0°
Enters shadow 23:48:00 17° 164° (SSE) 1,860 4.7 -18.7°
